Hourly Data Report for July 14, 2006

TORONTO CITY
ONTARIO

43°40'00.000" N
79°24'00.000" W
112.50 m
6158355
71508
XTO

Download Data

Hourly Data (July 2006)
Hourly Data Report for July 14, 2006
TIME
LST
Temp Definition
°C
Dew Point Definition
°C
Rel Hum Definition
%
Precip. Amount Definition
mm

Wind Dir Definition
10's deg

Wind Spd Definition
km/h
Visibility Definition
km
Stn Press Definition
kPa
Hmdx Definition


Wind Chill Definition


Weather Definition


00:00 22.4 19.5 84   LegendMM LegendMM   100.09 30   LegendNANA
01:00 21.5 19.5 88   LegendMM LegendMM   100.10 29   LegendNANA
02:00 20.8 19.2 91   LegendMM LegendMM   100.11 28   LegendNANA
03:00 20.6 19.1 91   LegendMM LegendMM   100.11 27   LegendNANA
04:00 21.8 19.1 85   LegendMM LegendMM   100.12 29   LegendNANA
05:00 20.5 18.9 91   LegendMM LegendMM   100.14 27   LegendNANA
06:00 21.5 19.3 87   LegendMM LegendMM   100.19 29   LegendNANA
07:00 23.0 20.6 86   LegendMM LegendMM   100.15 31   LegendNANA
08:00 24.9 21.0 79   LegendMM LegendMM   100.14 33   LegendNANA
09:00 25.9 20.4 72   LegendMM LegendMM   100.14 34   LegendNANA
10:00 27.7 20.2 64   LegendMM LegendMM   100.13 35   LegendNANA
11:00 28.3 19.9 60   LegendMM LegendMM   100.13 36   LegendNANA
12:00 29.1 20.9 61   LegendMM LegendMM   100.11 37   LegendNANA
13:00 29.1 20.8 61   LegendMM LegendMM   100.03 37   LegendNANA
14:00 29.7 21.1 60   LegendMM LegendMM   99.99 38   LegendNANA
15:00 30.2 19.1 51   LegendMM LegendMM   99.92 37   LegendNANA
16:00 30.0 20.2 56   LegendMM LegendMM   99.86 38   LegendNANA
17:00 28.1 20.9 65   LegendMM LegendMM   99.83 36   LegendNANA
18:00 27.2 21.3 70   LegendMM LegendMM   99.79 36   LegendNANA
19:00 26.1 20.6 72   LegendMM LegendMM   99.78 34   LegendNANA
20:00 25.7 20.3 72   LegendMM LegendMM   99.82 34   LegendNANA
21:00 25.5 20.3 73   LegendMM LegendMM   99.83 33   LegendNANA
22:00 25.6 20.2 72   LegendMM LegendMM   99.79 33   LegendNANA
23:00 25.8 20.9 74   LegendMM LegendMM   99.76 34   LegendNANA

Notes on Data Quality.

Legend

  • E = Estimated
  • M = Missing
  • NA = Not Available*
  • [empty] = Indicates an unobserved value
Date modified: